Time,TemperatureF,DewpointF,PressureIn,WindDirection,WindDirectionDegrees,WindSpeedMPH,WindSpeedGustMPH,Humidity,HourlyPrecipIn,Conditions,Clouds,dailyrainin,SoftwareType,DateUTC
2014-07-23 00:00:00,61.7,50.6,30.01,South,187,0.0,0.0,67,0.00,,FEW,0.00,VWS V13.01,2014-07-23 07:00:00,
2014-07-23 00:10:00,61.5,50.9,30.01,South,187,0.0,0.0,68,0.00,,FEW,0.00,VWS V13.01,2014-07-23 07:10:00,
2014-07-23 00:20:00,61.3,50.7,30.01,South,187,0.0,0.0,68,0.00,,FEW,0.00,VWS V13.01,2014-07-23 07:20:00,
2014-07-23 00:30:00,61.2,50.9,30.01,South,187,0.0,0.0,69,0.00,,FEW,0.00,VWS V13.01,2014-07-23 07:30:00,
2014-07-23 00:40:00,60.8,50.6,30.01,South,187,0.0,0.0,69,0.00,,FEW,0.00,VWS V13.01,2014-07-23 07:40:00,
2014-07-23 00:50:00,60.6,50.8,30.03,South,188,0.0,0.0,70,0.00,,FEW,0.00,VWS V13.01,2014-07-23 07:50:00,
2014-07-23 01:00:00,60.4,51.0,30.01,South,187,0.0,0.0,71,0.00,,FEW,0.00,VWS V13.01,2014-07-23 08:00:00,
2014-07-23 01:10:00,60.3,50.8,30.01,South,187,0.0,0.0,71,0.00,,FEW,0.00,VWS V13.01,2014-07-23 08:10:00,
2014-07-23 01:20:00,60.1,50.7,30.03,South,187,0.0,0.0,71,0.00,,FEW,0.00,VWS V13.01,2014-07-23 08:20:00,
2014-07-23 01:30:00,59.9,50.9,30.03,South,187,0.0,0.0,72,0.00,,FEW,0.00,VWS V13.01,2014-07-23 08:30:00,
2014-07-23 01:40:00,59.7,50.7,30.03,South,187,0.0,0.0,72,0.00,,FEW,0.00,VWS V13.01,2014-07-23 08:40:00,
2014-07-23 01:50:00,59.5,50.5,30.03,South,188,0.0,0.0,72,0.00,,FEW,0.00,VWS V13.01,2014-07-23 08:50:00,
2014-07-23 02:00:00,59.4,50.7,30.03,South,187,0.0,0.0,73,0.00,,FEW,0.00,VWS V13.01,2014-07-23 09:00:00,
2014-07-23 02:10:00,59.2,50.5,30.03,South,187,0.0,0.0,73,0.00,,FEW,0.00,VWS V13.01,2014-07-23 09:10:00,
2014-07-23 02:20:00,59.2,50.5,30.03,South,187,0.0,0.0,73,0.00,,FEW,0.00,VWS V13.01,2014-07-23 09:20:00,
2014-07-23 02:30:00,59.0,50.4,30.03,South,187,0.0,0.0,73,0.00,,FEW,0.00,VWS V13.01,2014-07-23 09:30:00,
2014-07-23 02:40:00,58.8,50.6,30.03,South,188,0.0,0.0,74,0.00,,FEW,0.00,VWS V13.01,2014-07-23 09:40:00,
2014-07-23 02:50:00,58.8,50.6,30.01,South,187,0.0,0.0,74,0.00,,FEW,0.00,VWS V13.01,2014-07-23 09:50:00,
2014-07-23 03:00:00,58.5,50.2,30.03,South,187,0.0,0.0,74,0.00,,FEW,0.00,VWS V13.01,2014-07-23 10:00:00,
2014-07-23 03:10:00,58.3,50.0,30.03,South,187,0.0,0.0,74,0.00,,FEW,0.00,VWS V13.01,2014-07-23 10:10:00,
2014-07-23 03:20:00,58.1,49.9,30.01,South,187,0.0,0.0,74,0.00,,FEW,0.00,VWS V13.01,2014-07-23 10:20:00,
2014-07-23 03:30:00,57.9,49.7,30.01,South,187,0.0,0.0,74,0.00,,FEW,0.00,VWS V13.01,2014-07-23 10:30:00,
2014-07-23 03:40:00,57.7,49.5,30.01,South,187,0.0,0.0,74,0.00,,FEW,0.00,VWS V13.01,2014-07-23 10:40:00,
2014-07-23 03:50:00,57.6,49.7,30.01,South,187,0.0,0.0,75,0.00,,FEW,0.00,VWS V13.01,2014-07-23 10:50:00,
2014-07-23 04:00:00,57.6,49.7,30.01,South,187,0.0,0.0,75,0.00,,FEW,0.00,VWS V13.01,2014-07-23 11:00:00,
2014-07-23 04:10:00,57.4,49.5,30.01,South,188,0.0,0.0,75,0.00,,FEW,0.00,VWS V13.01,2014-07-23 11:10:00,
2014-07-23 04:20:00,57.2,49.7,30.01,South,187,0.0,0.0,76,0.00,,FEW,0.00,VWS V13.01,2014-07-23 11:20:00,
2014-07-23 04:30:00,57.0,49.5,30.01,South,187,0.0,0.0,76,0.00,,FEW,0.00,VWS V13.01,2014-07-23 11:30:00,
2014-07-23 04:40:00,56.8,49.7,30.01,South,187,0.0,0.0,77,0.00,,SKC,0.00,VWS V13.01,2014-07-23 11:40:00,
2014-07-23 04:50:00,56.7,49.5,30.01,South,187,0.0,0.0,77,0.00,,SKC,0.00,VWS V13.01,2014-07-23 11:50:00,
2014-07-23 05:00:00,56.3,49.2,30.01,South,187,0.0,0.0,77,0.00,,SKC,0.00,VWS V13.01,2014-07-23 12:00:00,
2014-07-23 05:10:00,56.1,49.4,30.01,South,187,0.0,0.0,78,0.00,,SKC,0.00,VWS V13.01,2014-07-23 12:10:00,
2014-07-23 05:20:00,55.9,49.2,30.01,South,187,0.0,0.0,78,0.00,,SKC,0.00,VWS V13.01,2014-07-23 12:20:00,
2014-07-23 05:30:00,55.9,49.5,30.01,South,187,0.0,0.0,79,0.00,,SKC,0.00,VWS V13.01,2014-07-23 12:30:00,
2014-07-23 05:40:00,55.9,49.9,30.01,South,187,0.0,0.0,80,0.00,,SKC,0.00,VWS V13.01,2014-07-23 12:40:00,
2014-07-23 05:50:00,55.9,49.9,30.01,South,187,0.0,0.0,80,0.00,,SKC,0.00,VWS V13.01,2014-07-23 12:50:00,
2014-07-23 06:00:00,56.1,50.0,30.01,South,187,0.0,0.0,80,0.00,,SKC,0.00,VWS V13.01,2014-07-23 13:00:00,
2014-07-23 06:10:00,55.9,49.9,30.01,South,187,0.0,0.0,80,0.00,,SKC,0.00,VWS V13.01,2014-07-23 13:10:00,
2014-07-23 06:20:00,55.9,50.2,30.01,South,187,0.0,0.0,81,0.00,,SKC,0.00,VWS V13.01,2014-07-23 13:20:00,
2014-07-23 06:30:00,55.8,49.7,30.03,South,187,0.0,0.0,80,0.00,,SKC,0.00,VWS V13.01,2014-07-23 13:30:00,
2014-07-23 06:40:00,55.8,49.7,30.03,South,187,0.0,0.0,80,0.00,,SKC,0.00,VWS V13.01,2014-07-23 13:40:00,
2014-07-23 06:50:00,55.8,50.0,30.03,South,187,0.0,0.0,81,0.00,,SKC,0.00,VWS V13.01,2014-07-23 13:50:00,
2014-07-23 07:00:00,55.8,50.0,30.03,South,187,0.0,0.0,81,0.00,,SKC,0.00,VWS V13.01,2014-07-23 14:00:00,
2014-07-23 07:10:00,55.9,50.2,30.03,South,187,0.0,0.0,81,0.00,,SKC,0.00,VWS V13.01,2014-07-23 14:10:00,
2014-07-23 07:20:00,55.9,50.5,30.03,South,187,0.0,0.0,82,0.00,,SKC,0.00,VWS V13.01,2014-07-23 14:20:00,
2014-07-23 07:30:00,56.1,50.7,30.03,South,187,0.0,0.0,82,0.00,,SKC,0.00,VWS V13.01,2014-07-23 14:30:00,
2014-07-23 07:40:00,56.3,50.9,30.03,South,187,0.0,0.0,82,0.00,,SKC,0.00,VWS V13.01,2014-07-23 14:40:00,
2014-07-23 07:50:00,56.3,50.9,30.03,South,187,0.0,0.0,82,0.00,,SKC,0.00,VWS V13.01,2014-07-23 14:50:00,
2014-07-23 08:00:00,56.8,51.4,30.03,South,187,0.0,0.0,82,0.00,,SKC,0.00,VWS V13.01,2014-07-23 15:00:00,
2014-07-23 08:10:00,57.6,52.1,30.03,South,187,0.0,0.0,82,0.00,,SKC,0.00,VWS V13.01,2014-07-23 15:10:00,
2014-07-23 08:20:00,58.8,53.3,30.03,South,187,0.0,0.0,82,0.00,,SKC,0.00,VWS V13.01,2014-07-23 15:20:00,
2014-07-23 08:30:00,59.9,54.1,30.03,South,187,0.0,0.0,81,0.00,,SKC,0.00,VWS V13.01,2014-07-23 15:30:00,
2014-07-23 08:40:00,61.0,54.4,30.03,South,187,0.0,0.0,79,0.00,,SKC,0.00,VWS V13.01,2014-07-23 15:40:00,
2014-07-23 08:50:00,61.9,54.2,30.03,South,187,0.0,0.0,76,0.00,,SKC,0.00,VWS V13.01,2014-07-23 15:50:00,
2014-07-23 09:00:00,62.2,53.5,30.03,South,187,0.0,0.0,73,0.00,,SKC,0.00,VWS V13.01,2014-07-23 16:00:00,
2014-07-23 09:10:00,62.8,53.6,30.03,South,187,0.0,0.0,72,0.00,,SKC,0.00,VWS V13.01,2014-07-23 16:10:00,
2014-07-23 09:20:00,63.1,53.2,30.03,South,187,0.0,0.0,70,0.00,,SKC,0.00,VWS V13.01,2014-07-23 16:20:00,
2014-07-23 09:30:00,63.9,53.5,30.03,South,187,0.0,0.0,69,0.00,,SKC,0.00,VWS V13.01,2014-07-23 16:30:00,
2014-07-23 09:40:00,64.4,53.2,30.03,South,176,0.0,0.0,67,0.00,,SKC,0.00,VWS V13.01,2014-07-23 16:40:00,
2014-07-23 09:50:00,65.1,53.5,30.03,South,176,0.0,0.0,66,0.00,,SKC,0.00,VWS V13.01,2014-07-23 16:50:00,
2014-07-23 10:00:00,65.8,53.3,30.06,SE,130,0.0,0.0,64,0.00,,SKC,0.00,VWS V13.01,2014-07-23 17:00:00,